Idaho Falls, ID

10:25 PM MDT on June 28, 2017 (GMT -0600)
Fanning

Weather History for KIDA - August, 2013

Change the Weather History Date:

Sunday, August 4, 2013

  Actual Average Record
Temperature  
Mean Temperature 69 °F 69 °F  
Max Temperature 92 °F 88 °F 100 °F (1961)
Min Temperature 45 °F 50 °F 36 °F (1980)
Degree Days  
Heating Degree Days 0 0  
Month to date heating degree days 0 0  
Since 1 June heating degree days 100 180  
Since 1 July heating degree days 0 27  
Cooling Degree Days 4 4  
Month to date cooling degree days 16 16  
Year to date cooling degree days 307 171  
Since 1 June cooling degree days 303 169  
Growing Degree Days 18 (Base 50)    
Moisture  
Dew Point 35 °F    
Average Humidity 46    
Maximum Humidity 83    
Minimum Humidity 8    
Precipitation  
Precipitation 0.00 in 0.02 in 0.34 in (1951)
Month to date precipitation 0.00 0.06  
Year to date precipitation 2.43 6.50  
Sea Level Pressure  
Sea Level Pressure 29.96 in    
Wind  
Wind Speed 6 mph (SW)    
Max Wind Speed 17 mph    
Max Gust Speed 24 mph    
Visibility 10 miles    
Events      
T = Trace of Precipitation, MM = Missing Value Source: NWS Daily Summary

Daily Weather History Graph

Daily Weather History Graph

Search for Another Location

Airport or City:

Trip Planner

Search our weather history database for the weather conditions in past years. The results will help you decide how hot, cold, wet, or windy it might be!

Date:

Astronomy

Aug. 04, 2013 Rise Set
Actual Time 6:21 AM MDT 8:46 PM MDT
Civil Twilight 5:49 AM MDT 9:18 PM MDT
Nautical Twilight 5:09 AM MDT 9:58 PM MDT
Astronomical Twilight 4:23 AM MDT 10:43 PM MDT
Moon 4:25 AM MDT (8/4) 7:12 PM MDT (8/4)
Length of Visible Light 15h 29m
Length of Day
14h 25m
Waning Crescent, 4% of the Moon is Illuminated
Aug 4
Waning Crescent
Aug 6
New
Aug 14
First Quarter
Aug 20
Full
Aug 28
Last Quarter

Hourly Weather History & Observations

Time (MDT) Temp. Windchill Dew Point Humidity Pressure Visibility Wind Dir Wind Speed Gust Speed Precip Events Conditions
12:53 AM 57.0 °F - 46.0 °F 67% 29.95 in 10.0 mi Calm Calm - N/A   Clear
1:53 AM 55.0 °F - 43.0 °F 64% 29.94 in 10.0 mi North 4.6 mph - N/A   Clear
2:53 AM 55.0 °F - 39.9 °F 57% 29.95 in 10.0 mi North 6.9 mph - N/A   Clear
3:53 AM 55.0 °F - 39.9 °F 57% 29.96 in 10.0 mi Calm Calm - N/A   Clear
4:53 AM 48.0 °F - 41.0 °F 77% 29.97 in 10.0 mi NNW 4.6 mph - N/A   Clear
5:53 AM 45.0 °F 42.6 °F 39.0 °F 80% 30.01 in 10.0 mi NNW 4.6 mph - N/A   Clear
6:53 AM 46.0 °F 44.8 °F 39.0 °F 76% 30.02 in 10.0 mi North 3.5 mph - N/A   Clear
7:53 AM 52.0 °F - 43.0 °F 71% 30.03 in 10.0 mi North 4.6 mph - N/A   Clear
8:53 AM 63.0 °F - 39.0 °F 41% 30.03 in 10.0 mi Calm Calm - N/A   Clear
9:53 AM 70.0 °F - 36.0 °F 29% 30.01 in 10.0 mi SSW 3.5 mph - N/A   Clear
10:53 AM 73.9 °F - 32.0 °F 21% 30.01 in 10.0 mi SSW 5.8 mph - N/A   Clear
11:53 AM 80.1 °F - 33.1 °F 18% 30.01 in 10.0 mi SSW 8.1 mph - N/A   Clear
12:53 PM 84.0 °F - 30.9 °F 15% 29.99 in 10.0 mi South 6.9 mph - N/A   Clear
1:53 PM 86.0 °F - 30.9 °F 14% 29.98 in 10.0 mi South 5.8 mph - N/A   Clear
2:53 PM 89.1 °F - 28.9 °F 12% 29.96 in 10.0 mi South 9.2 mph - N/A   Clear
3:53 PM 90.0 °F - 25.0 °F 10% 29.93 in 10.0 mi SW 11.5 mph 18.4 mph N/A   Clear
4:53 PM 91.0 °F - 24.1 °F 9% 29.92 in 10.0 mi SW 12.7 mph - N/A   Clear
5:53 PM 91.0 °F - 21.9 °F 8% 29.92 in 10.0 mi SSW 13.8 mph - N/A   Clear
6:53 PM 90.0 °F - 23.0 °F 9% 29.90 in 10.0 mi SSW 16.1 mph - N/A   Clear
7:53 PM 87.1 °F - 28.0 °F 12% 29.89 in 10.0 mi South 10.4 mph - N/A   Clear
8:53 PM 82.0 °F - 28.9 °F 14% 29.88 in 10.0 mi South 8.1 mph - N/A   Clear
9:53 PM 73.0 °F - 35.1 °F 25% 29.90 in 10.0 mi South 4.6 mph - N/A   Clear
10:53 PM 60.1 °F - 41.0 °F 49% 29.93 in 10.0 mi Calm Calm - N/A   Clear
11:53 PM 60.1 °F - 39.9 °F 47% 29.92 in 10.0 mi Calm Calm - N/A   Clear